Weather History for Oskaloosa, IA

Change the Weather History Date:

Thursday, January 3, 2013

  Actual Average (KOTM) Record (KOTM)
Temperature  
Mean Temperature 21 °F 23 °F  
Max Temperature 31 °F 32 °F 56 °F (1998)
Min Temperature 11 °F 14 °F -11 °F (2014)
Degree Days  
Heating Degree Days 44 42  
Month to date heating degree days 126  
Since 1 July heating degree days 2631  
Cooling Degree Days 0 0  
Month to date cooling degree days 0  
Year to date cooling degree days 0  
Moisture  
Dew Point 16 °F    
Average Humidity 76    
Maximum Humidity 86    
Minimum Humidity 58    
Precipitation  
Precipitation 0.00 in 0.03 in 1.26 in (1973)
Month to date precipitation 0.10  
Year to date precipitation 0.10  
Sea Level Pressure  
Sea Level Pressure 30.29 in    
Wind  
Wind Speed 11 mph (WNW)    
Max Wind Speed 22 mph    
Max Gust Speed 25 mph    
Visibility 10 miles    
Events Snow    
T = Trace of Precipitation, MM = Missing Value Source: NWS Daily Summary

Daily Weather History Graph

Daily Weather History Graph

Search for Another Location

Airport:

Trip Planner

Search our weather history database for the weather conditions in past years. The results will help you decide how hot, cold, wet, or windy it might be!

Date:

Astronomy

Jan. 03, 2013 Rise Set
Actual Time 7:35 AM CST 4:53 PM CST
Civil Twilight 7:04 AM CST 5:24 PM CST
Nautical Twilight 6:30 AM CST 5:59 PM CST
Astronomical Twilight 5:56 AM CST 6:32 PM CST
Moon 11:34 PM CST (1/3) 10:43 AM CST (1/3)
Length of Visible Light 10h 20m
Length of Day
9h 18m
Waning Gibbous, 65% of the Moon is Illuminated
Jan 3
Waning Gibbous
Jan 4
Last Quarter
Jan 11
New
Jan 18
First Quarter
Jan 26
Full

Hourly Weather History & Observations

Time (CST) Temp. Windchill Dew Point Humidity Pressure Visibility Wind Dir Wind Speed Gust Speed Precip Events Conditions
12:15 AM 30.0 °F 20.5 °F 26.2 °F 86% 30.15 in 10.0 mi West 11.5 mph - N/A   Overcast
12:35 AM 30.2 °F 20.8 °F 26.4 °F 86% 30.15 in 10.0 mi West 11.5 mph - N/A   Overcast
12:55 AM 30.2 °F 21.3 °F 26.2 °F 85% 30.15 in 10.0 mi WNW 10.4 mph - N/A   Overcast
1:15 AM 30.0 °F 21.1 °F 25.7 °F 84% 30.15 in 10.0 mi WNW 10.4 mph - N/A   Overcast
1:35 AM 30.2 °F 21.3 °F 24.6 °F 80% 30.15 in 10.0 mi WNW 10.4 mph - N/A   Overcast
1:55 AM 30.7 °F 22.0 °F 23.9 °F 76% 30.17 in 10.0 mi WNW 10.4 mph 18.4 mph N/A   Overcast
2:15 AM 30.2 °F 21.3 °F 24.3 °F 79% 30.17 in 10.0 mi WNW 10.4 mph - N/A   Overcast
2:35 AM 30.2 °F 21.9 °F 24.4 °F 79% 30.18 in 10.0 mi WNW 9.2 mph - N/A   Overcast
2:55 AM 30.2 °F 23.4 °F 24.1 °F 78% 30.18 in 10.0 mi West 6.9 mph - N/A   Overcast
3:15 AM 30.0 °F 24.1 °F 24.4 °F 80% 30.19 in 10.0 mi WNW 5.8 mph - N/A   Overcast
3:35 AM 30.0 °F 24.1 °F 24.8 °F 81% 30.19 in 10.0 mi West 5.8 mph - N/A   Overcast
3:55 AM 29.8 °F 24.9 °F 25.0 °F 82% 30.19 in 10.0 mi West 4.6 mph - N/A Snow Light Snow
4:15 AM 30.0 °F 24.1 °F 25.5 °F 83% 30.19 in 10.0 mi West 5.8 mph - N/A Snow Light Snow
4:35 AM 30.2 °F 24.3 °F 25.7 °F 83% 30.19 in 10.0 mi WSW 5.8 mph - N/A   Overcast
4:55 AM 30.0 °F 23.2 °F 25.7 °F 84% 30.19 in 10.0 mi West 6.9 mph - N/A   Overcast
5:15 AM 30.2 °F 23.4 °F 26.4 °F 86% 30.19 in 10.0 mi West 6.9 mph - N/A   Overcast
5:35 AM 30.4 °F 22.9 °F 26.6 °F 86% 30.19 in 10.0 mi West 8.1 mph - N/A   Overcast
5:55 AM 30.7 °F 22.6 °F 26.8 °F 85% 30.20 in 10.0 mi West 9.2 mph - N/A   Overcast
6:15 AM 30.9 °F 22.2 °F 27.0 °F 85% 30.21 in 10.0 mi West 10.4 mph - N/A   Overcast
6:35 AM 30.9 °F 22.8 °F 27.0 °F 85% 30.22 in 10.0 mi West 9.2 mph - N/A   Overcast
6:55 AM 30.9 °F 22.2 °F 26.8 °F 85% 30.22 in 10.0 mi West 10.4 mph - N/A   Overcast
7:35 AM 31.1 °F 23.1 °F 27.0 °F 85% 30.23 in 10.0 mi WNW 9.2 mph - N/A   Overcast
7:55 AM 29.7 °F 17.8 °F 24.8 °F 82% 30.25 in 10.0 mi North 17.3 mph - N/A   Overcast
8:15 AM 26.2 °F 13.8 °F 21.4 °F 82% 30.26 in 10.0 mi North 16.1 mph - N/A   Overcast
8:35 AM 24.8 °F 11.1 °F 19.9 °F 82% 30.27 in 7.0 mi NNW 18.4 mph 23.0 mph N/A   Overcast
8:55 AM 23.9 °F 11.7 °F 18.5 °F 80% 30.28 in 10.0 mi NNW 13.8 mph 19.6 mph N/A   Overcast
9:35 AM 24.3 °F 10.8 °F 18.0 °F 77% 30.30 in 10.0 mi NW 17.3 mph 25.3 mph N/A   Overcast
9:55 AM 23.9 °F 10.3 °F 17.6 °F 77% 30.31 in 10.0 mi NW 17.3 mph - N/A   Overcast
10:15 AM 24.4 °F 11.9 °F 17.6 °F 75% 30.32 in 10.0 mi NW 15.0 mph - N/A   Mostly Cloudy
10:35 AM 25.5 °F 12.9 °F 17.6 °F 72% 30.32 in 10.0 mi NW 16.1 mph 24.2 mph N/A   Scattered Clouds
10:55 AM 25.0 °F 10.2 °F 16.3 °F 70% 30.32 in 10.0 mi WNW 21.9 mph 25.3 mph N/A   Mostly Cloudy
11:15 AM 23.5 °F 9.9 °F 13.6 °F 66% 30.32 in 10.0 mi NW 17.3 mph - N/A   Overcast
11:35 AM 24.3 °F 10.4 °F 13.6 °F 64% 30.32 in 10.0 mi NW 18.4 mph 25.3 mph N/A   Mostly Cloudy
11:55 AM 24.6 °F 11.7 °F 13.8 °F 64% 30.32 in 10.0 mi NW 16.1 mph 23.0 mph N/A   Scattered Clouds
12:15 PM 25.3 °F 12.2 °F 14.2 °F 63% 30.32 in 10.0 mi WNW 17.3 mph - N/A   Clear
12:35 PM 25.3 °F 12.6 °F 14.2 °F 63% 30.31 in 10.0 mi WNW 16.1 mph 24.2 mph N/A   Clear
12:55 PM 26.1 °F 14.5 °F 14.2 °F 61% 30.30 in 10.0 mi NW 13.8 mph 20.7 mph N/A   Clear
1:15 PM 25.9 °F 12.5 °F 13.1 °F 58% 30.31 in 10.0 mi WNW 18.4 mph 24.2 mph N/A   Clear
1:35 PM 25.7 °F 12.7 °F 13.6 °F 60% 30.30 in 10.0 mi WNW 17.3 mph 23.0 mph N/A   Clear
1:55 PM 26.1 °F 14.0 °F 14.7 °F 62% 30.31 in 10.0 mi NW 15.0 mph - N/A   Clear
2:15 PM 25.0 °F 13.1 °F 12.6 °F 59% 30.31 in 10.0 mi WNW 13.8 mph - N/A   Clear
2:35 PM 24.4 °F 11.5 °F 11.7 °F 58% 30.32 in 10.0 mi WNW 16.1 mph - N/A   Clear
2:55 PM 24.3 °F 11.7 °F 11.3 °F 58% 30.32 in 10.0 mi WNW 15.0 mph - N/A   Clear
3:15 PM 23.9 °F 10.8 °F 11.3 °F 59% 30.33 in 10.0 mi WNW 16.1 mph - N/A   Clear
3:35 PM 23.2 °F 10.3 °F 11.1 °F 60% 30.33 in 10.0 mi WNW 15.0 mph 19.6 mph N/A   Clear
3:55 PM 22.5 °F 9.4 °F 10.9 °F 61% 30.34 in 10.0 mi WNW 15.0 mph 19.6 mph N/A   Clear
4:15 PM 21.9 °F 9.8 °F 11.3 °F 64% 30.34 in 10.0 mi WNW 12.7 mph - N/A   Clear
4:35 PM 20.7 °F 8.8 °F 10.4 °F 65% 30.35 in 10.0 mi WNW 11.5 mph - N/A   Clear
4:55 PM 19.9 °F 7.3 °F 10.9 °F 68% 30.35 in 10.0 mi WNW 12.7 mph - N/A   Clear
5:15 PM 18.7 °F 6.3 °F 10.4 °F 70% 30.36 in 10.0 mi WNW 11.5 mph - N/A   Clear
5:35 PM 18.1 °F 5.6 °F 10.2 °F 71% 30.36 in 10.0 mi WNW 11.5 mph - N/A   Clear
5:55 PM 17.6 °F 5.7 °F 10.2 °F 73% 30.37 in 10.0 mi WNW 10.4 mph - N/A   Clear
6:15 PM 17.1 °F 5.0 °F 9.9 °F 73% 30.37 in 10.0 mi WNW 10.4 mph - N/A   Clear
6:35 PM 16.7 °F 4.5 °F 9.7 °F 74% 30.37 in 10.0 mi WNW 10.4 mph - N/A   Clear
6:55 PM 16.3 °F 4.9 °F 9.7 °F 75% 30.37 in 10.0 mi WNW 9.2 mph - N/A   Clear
7:15 PM 15.8 °F 5.1 °F 9.5 °F 76% 30.37 in 10.0 mi WNW 8.1 mph - N/A   Clear
7:35 PM 15.1 °F 5.2 °F 9.5 °F 79% 30.37 in 10.0 mi West 6.9 mph - N/A   Clear
7:55 PM 13.8 °F 4.9 °F 8.6 °F 80% 30.37 in 10.0 mi West 5.8 mph - N/A   Clear
8:15 PM 13.5 °F 3.3 °F 8.4 °F 80% 30.38 in 10.0 mi West 6.9 mph - N/A   Clear
8:35 PM 12.4 °F 0.9 °F 7.9 °F 82% 30.36 in 10.0 mi West 8.1 mph - N/A   Clear
8:55 PM 12.2 °F 1.7 °F 7.9 °F 83% 30.36 in 10.0 mi WSW 6.9 mph - N/A   Clear
9:15 PM 12.7 °F 3.6 °F 8.1 °F 82% 30.35 in 10.0 mi WSW 5.8 mph - N/A   Clear
9:35 PM 11.8 °F 2.5 °F 7.5 °F 83% 30.35 in 10.0 mi WSW 5.8 mph - N/A   Clear
9:55 PM 11.5 °F -0.2 °F 7.3 °F 83% 30.35 in 10.0 mi SW 8.1 mph - N/A   Clear
10:15 PM 11.7 °F 1.1 °F 7.5 °F 83% 30.35 in 10.0 mi WSW 6.9 mph - N/A   Clear
10:35 PM 12.2 °F 1.7 °F 7.7 °F 82% 30.34 in 10.0 mi WSW 6.9 mph - N/A   Clear
10:55 PM 11.3 °F 3.3 °F 7.3 °F 84% 30.34 in 10.0 mi WSW 4.6 mph - N/A   Clear
11:15 PM 11.5 °F 2.1 °F 7.7 °F 85% 30.34 in 10.0 mi WSW 5.8 mph - N/A   Clear
11:35 PM 12.0 °F 1.5 °F 8.1 °F 84% 30.33 in 10.0 mi WSW 6.9 mph - N/A   Clear
11:55 PM 11.3 °F 3.3 °F 7.5 °F 85% 30.32 in 10.0 mi SW 4.6 mph - N/A   Clear